www.pogodaiklimat.ru

Погода и климат >> Архив погоды >> Канада >> Oshawa


ПОГОДА в Oshawa

  • Прогноз погоды в Oshawa
  • Монитор погоды в Oshawa
  • Климат города

АРХИВ ПОГОДЫ в Oshawa

Время (UTC), дата Ветер
(напр.,м/с)
 
Видим.   Явления Облачность Т
(С)
Тd
(С)
f
(%)
Тe
(С)
Тes
(С)
Комфортность P
(гПа)
Po
(гПа)
Тmin
(С)
Tmax
(С)
R
(мм)
R24
(мм)
S
(см)
18 12.09 Ю 2 16 км н/о +21.4 +11.8 54 +23 +23 комфорт 1016.0 999.2 +7.6 +22.8
21 12.09 Ю 3 16 км н/о +22.3 +8.3 41 +24 +24 комфорт 1014.1 997.3
00 13.09 С 1 16 км ясно +16.6 +10.4 67 +17 +17 1013.2 996.4 +7.6 +22.8
03 13.09 С 1 16 км н/о +13.4 +10.2 81 +14 +14 1012.9 996.2 +7.6 +22.8
06 13.09 СВ 1 16 км ясно +12.5 +9.0 79 +13 +13 1012.3 995.6 +7.6 +22.8
09 13.09 С 2 16 км ясно +9.7 +8.3 91 +8 +8 1011.8 995.1
12 13.09 С 3 12 км ясно +12.0 +9.8 86 +11 +11 1012.2 995.4 +9.1 +22.8
15 13.09 ЮВ 2 9000 м дым н/о +21.0 +11.7 55 +24 +24 комфорт 1011.3 994.6 +9.1 +22.1
18 13.09 ЮВ 3 8000 м дым ясно +22.8 +15.2 62 +27 +36 душно 1010.0 993.3 +9.1 +22.9
21 13.09 ЮВ 3 16 км 10/0
[]
+22.5 +13.1 55 +25 +27 комфорт 1008.9 992.2
00 14.09 ЮВ 1 16 км ясно +19.8 +14.7 72 +23 +23 комфорт 1008.9 992.2 +9.1 +23.9
03 14.09 С 1 16 км н/о +15.3 +13.6 90 +16 +16 1009.6 993.0 +9.1 +23.9
06 14.09 С 2 16 км ясно +14.4 +12.3 87 +14 +14 1008.8 992.2 +9.1 +23.9
09 14.09 С 1 16 км ясно +13.2 +11.9 92 +14 +14 1009.8 993.2
12 14.09 СЗ 1 8000 м дымка ясно +14.6 +12.9 90 +16 +16 1010.7 994.0 +12.7 +23.9
15 14.09 Ю 1 16 км н/о +23.0 +16.6 67 +28 +28 душно 1011.1 994.5 +12.7 +23.0
18 14.09 Ю 4 9000 м дым ясно +23.7 +16.7 65 +27 +36 жарко 1011.1 994.5 +12.7 +24.5
21 14.09 ЮЗ 3 16 км ясно +25.0 +15.8 57 +28 +31 жарко 1011.0 994.4
00 15.09 Ю 1 16 км 5/0
[]
+21.3 +16.0 72 +25 +25 комфорт 1012.7 996.0 +12.7 +25.1
03 15.09 16 км н/о +18.1 +14.9 82 1014.0 997.4 +12.7 +25.1
06 15.09 С 3 16 км ясно +17.5 +13.3 76 +17 +17 1015.1 998.4 +12.7 +25.1
09 15.09 С 4 16 км ясно +17.2 +13.2 77 +17 +17 1015.6 999.0
12 15.09 С 3 6000 м дым ясно +17.5 +13.2 76 +18 +18 1017.9 1001.2 +16.2 +25.1
15 15.09 З 1 9000 м дым н/о +23.2 +16.7 67 +28 +28 душно 1019.2 1002.5 +16.2 +23.2
18 15.09 Ю 4 6000 м дым ясно +23.6 +16.6 65 +27 +36 жарко 1019.0 1002.3 +16.2 +25.3
21 15.09 Ю 3 16 км ясно +23.8 +15.2 59 +27 +30 жарко 1018.8 1002.1
00 16.09 С 1 16 км ясно +18.9 +15.8 82 +21 +21 комфорт 1019.7 1002.9 +16.2 +25.3
03 16.09 С 1 16 км н/о +16.7 +14.4 86 +18 +18 1020.7 1003.9 +16.2 +25.3
06 16.09 16 км н/о +15.2 +13.6 90 1021.1 1004.3 +15.1 +25.3
09 16.09 С 2 11 км ясно +14.3 +12.9 91 +14 +14 1021.5 1004.7
12 16.09 С 1 8000 м дымка н/о +15.0 +13.6 91 +16 +16 1022.3 1005.4 +13.5 +25.3
15 16.09 ЮЗ 2 11 км ясно +22.8 +17.9 74 +28 +37 душно 1023.0 1006.2
18 16.09 Ю 4 8000 м дым ясно +25.2 +13.5 48 +27 +36 жарко 1022.2 1005.4 +13.5 +25.2
21 16.09 Ю 3 16 км ясно +24.5 +13.6 51 +27 +30 жарко 1021.3 1004.5
00 17.09 В 1 3200 м дым н/о +19.2 +14.6 75 +22 +22 комфорт 1021.0 1004.2 +26.0
03 17.09 С 1 16 км н/о +15.4 +13.8 90 +16 +16 1021.1 1004.3 +13.5 +26.0
06 17.09 СВ 1 16 км ясно +14.1 +12.7 91 +14 +14 1020.7 1003.9 +13.5 +26.0
09 17.09 С 2 16 км ясно +13.7 +12.8 94 +13 +13 1020.9 1004.1
12 17.09 СЗ 2 11 км ясно +15.4 +14.3 93 +15 +16 1021.6 1004.7 +12.9 +26.0
15 17.09 ЮВ 2 16 км ясно +22.8 +18.6 77 +29 +37 очень
душно
1021.1 1004.3
18 17.09 ЮВ 3 9000 м дым ясно +24.2 +18.0 68 +28 +39 душно 1020.0 1003.2 +12.9 +24.9
21 17.09 ЮВ 3 16 км ясно +24.5 +16.9 63 +28 +31 душно 1018.8 1002.0
00 18.09 ЮВ 2 16 км ясно +20.8 +16.5 76 +25 +25 комфорт 1018.7 1001.9 +12.9 +25.3
03 18.09 С 1 16 км н/о +17.5 +15.3 87 +19 +19 1019.2 1002.5 +12.9 +25.3
06 18.09 С 2 16 км ясно +16.1 +14.5 90 +16 +16 1018.6 1001.9 +12.9 +25.3
09 18.09 СВ 1 11 км н/о +15.1 +13.8 92 +16 +16 1017.9 1001.2 +12.9 +24.7
12 18.09 В 3 6000 м дымка ясно +17.0 +15.9 93 +17 +17 1018.7 1001.9 +14.6 +25.3
15 18.09 ЮВ 2 16 км ясно +23.3 +18.7 75 +29 +37 душно 1018.6 1001.9
18 18.09 ЮВ 3 16 км ясно +24.4 +18.3 69 +29 +39 душно 1017.9 1001.2 +14.6 +24.9
21 18.09 ЮВ 3 16 км ясно +24.3 +17.2 65 +28 +31 душно 1017.1 1000.4
00 19.09 ЮВ 2 16 км ясно +21.5 +17.0 76 +25 +25 комфорт 1017.1 1000.4 +14.6 +25.6
03 19.09 С 1 16 км н/о +17.6 +16.2 91 +19 +19 1017.3 1000.6 +14.6 +25.6
06 19.09 С 2 16 км 9/0
[]
+18.0 +16.4 90 +19 +19 1017.0 1000.3 +14.6 +25.6
09 19.09 С 2 12 км 9/0
[]
+18.9 +17.4 91 +21 +21 комфорт 1016.4 999.8
12 19.09 С 2 8000 м дымка 9/9 1000 м
[]
+19.6 +17.9 90 +23 +23 комфорт 1017.2 1000.5 +17.2 +25.6

 

Местоположение метеостанции Oshawa (Канада): широта 43.92 долгота -78.88 высота над уровнем моря 139 м.

В архиве по умолчанию представлена погода в Oshawa за последнюю неделю. Архивные данные за месяц целиком и за предыдущие месяцы, начиная с января 2011 года, Вы можете получить, выбрав интересующий диапазон дат из раскрывающегося списка и нажав кнопку "Ввод!".

Внимание! Время в таблицах - всемирное. Для получения местного времени необходимо прибавить поправку, которая в Oshawa равна -5 ч.

Смотрите также архив погоды в соседних городах и на ближайших метеорологических станциях:

Погода в Toronto Buttonville (Канада) (39 км)
Погода в Buttonville (Канада) (39 км)
Погода в Toronto Aes Hq (Канада) (49 км)
Погода в Toronto City (Канада) (50 км)
Погода в Toronto Island Arpt (Канада) (53 км)
Погода в Peterborough Arpt (Канада) (54 км)
Погода в Cobourg (Канада) (58 км)
Погода в Toronto (Канада) (66 км)
Погода в Peterborough Trent (Канада) (67 км)
Погода в Lagoon City (Канада) (73 км)

Пояснения к столбцам:

Ветер - указаны скорость ветра в м/с - средняя за 10 мин, порывы в срок и между сроками (в фигурных скобках) и направление, откуда дует ветер: С - северный, СВ - северо-восточный, В - восточный, ЮВ - юго-восточный, Ю - южный, ЮЗ - юго-западный, З - западный, СЗ - северо-западный.
Видимость - горизонтальная дальность видимости в метрах или километрах. При видимости от 1 до 10 км при отсутствии осадков обычно наблюдается дымка, при ухудшении видимости до 1 км и менее - туман. В сухую погоду видимость может ухудшаться дымом, пылью или мглою.
Явления - указаны атмосферные явления, наблюдавшиеся в срок или в последний час перед сроком; фигурными скобками обозначены явления, наблюдавшиеся между сроками (за 1-3 часа до срока); квадратными скобками обозначены град или гололедные отложения с указанием их диаметра в мм.
Облачность - указаны через наклонную черту общая и нижняя облачность в баллах и высота нижней границы облаков в метрах; квадратными скобками обозначены формы облаков: Ci - перистые, Cs - перисто-слоистые, Cc - перисто-кучевые, Ac - высококучевые, As - высокослоистые, Sc - слоисто-кучевые, Ns - слоисто-дождевые, Cu - кучевые, Cb - кучево-дождевые. Подробнее классификацию облаков см. в Атласе облаков (PDF).
T - Температура воздуха - температура, измеренная на высоте 2 м над землей.
Td - Температура точки росы - температура, при понижении до которой содержащийся в воздухе водяной пар достигнет насыщения.
f - Относительная влажность воздуха - влажноcть воздуха, измеренная на высоте 2 м над землей.
Te - Эффективная температура - температура, которую ощущает одетый по сезону человек в тени. Характеристика душности погоды. При расчете учитывается влияние влажности воздуха и скорости ветра на теплоощущения человека.
Tes - Эффективная температура на солнце - температура, которую ощущает человек, с поправкой на солнечный нагрев. Характеристика знойности погоды. Зависит от высоты солнца над горизонтом, облачности и скорости ветра. Ночью, в пасмурную погоду, а также при ветре 12 м/с и более поправка равна нулю.
P - Атмосферное давление - приведенное к уровню моря атмосферное давление.
Po - Атмосферное давление - измеренное на уровне метеостанции атмосферное давление.
Tmin - Минимальная температура - минимум температуры воздуха на высоте 2 м над землей.
Tmax - Максимальная температура - максимум температуры воздуха на высоте 2 м над землей.
R - Количество осадков - Количество выпавших осадков за период времени, мм. При наведении курсора мыши на число - период времени, за который выпало указанное количество осадков.
R24 - Количество осадков - Количество выпавших осадков за 24 часа, мм.
S - Снежный покров - Высота снежного покрова, см. При наведении курсора мыши на число - состояние снежного покрова и степень покрытия местности в баллах.